Regional Weather Roundup
Issued by NWS Little Rock, AR

Home | Current Version | Previous Version | Text Only | Print | Product List | Glossary Off
Versions: 1 2 3 4 5 6 7 8 9 10 11 12 13 14 15 16 17 18 19 20 21 22 23 24 25 26 27 28 29 30 31 32 33 34 35 36 37 38 39 40 41 42 43 44 45 46 47 48 49 50

000
ASUS44 KLZK 211805
RWRLZK

WEATHER ROUNDUP FOR ARKANSAS
NATIONAL WEATHER SERVICE LITTLE ROCK AR
100 PM CDT SAT OCT 21 2017

NOTE: "FAIR" INDICATES FEW OR NO CLOUDS BELOW 12,000 FEET WITH NO
SIGNIFICANT WEATHER AND/OR OBSTRUCTIONS TO VISIBILITY.

ARZ001-003-010-029-211900-
NORTHWEST ARKANSAS

CITY           SKY/WX    TMP DP  RH WIND       PRES   REMARKS
FAYETTEVILLE   MOSUNNY   77  66  68 S18G26    29.96F
6HR MIN TEMP:  65; 6HR MAX TEMP:  78;

FORT SMITH     PTSUNNY   80  66  62 S10       29.95F
6HR MIN TEMP:  65; 6HR MAX TEMP:  81;

HARRISON       CLOUDY    75  63  66 S15G22    30.01F
6HR MIN TEMP:  63; 6HR MAX TEMP:  77;

BENTONVILLE    PTSUNNY   76  63  64 S17G23    29.97F
6HR MIN TEMP:  66; 6HR MAX TEMP:  77;

ROGERS         MOSUNNY   76  64  66 S24       29.96F
6HR MIN TEMP:  64; 6HR MAX TEMP:  77;

SILOAM SPGS    PTSUNNY   77  64  64 S21G26    29.95F
6HR MIN TEMP:  65; 6HR MAX TEMP:  77;

HIGHFILL       MOSUNNY   76  64  66 S25       29.95F
6HR MIN TEMP:  65; 6HR MAX TEMP:  77;

SPRINGDALE     PTSUNNY   75  64  69 S15G29    29.98F
$$

ARZ004-005-016-211900-
NORTH CENTRAL ARKANSAS

CITY           SKY/WX    TMP DP  RH WIND       PRES   REMARKS
BATESVILLE     CLOUDY    75  66  73 S5        30.05F
6HR MIN TEMP:  65; 6HR MAX TEMP:  76;

MTN HOME       CLOUDY    71  65  81 S13G20    30.02F
6HR MIN TEMP:  60; 6HR MAX TEMP:  73;

$$

ARZ040-041-211900-
WEST CENTRAL ARKANSAS

CITY           SKY/WX    TMP DP  RH WIND       PRES   REMARKS
MENA           CLOUDY    73  73 100 CALM      30.01F
MOUNT IDA      CLOUDY    70  67  90 S3        30.01
6HR MIN TEMP:  67; 6HR MAX TEMP:  70; 6HR PCP:  0.01;

$$

ARZ009-017-025-026-028-211900-
NORTHEAST ARKANSAS

CITY           SKY/WX    TMP DP  RH WIND       PRES   REMARKS
JONESBORO      PTSUNNY   81  63  54 S16       30.07F
6HR MIN TEMP:  60; 6HR MAX TEMP:  82; 6HR PCP: TRACE;

NEWPORT        CLOUDY    81  65  58 S12       30.05F
6HR MIN TEMP:  63; 6HR MAX TEMP:  81; 6HR PCP: TRACE;

WALNUT RIDGE   MOSUNNY   80  63  55 S14       30.05F
6HR MIN TEMP:  63; 6HR MAX TEMP:  82; 6HR PCP: TRACE;

BLYTHEVILLE    SUNNY     80  59  48 S14       30.09F
6HR MIN TEMP:  62; 6HR MAX TEMP:  81; 6HR PCP: TRACE;

$$

ARZ022-023-033-042-044-211900-
CENTRAL ARKANSAS

CITY           SKY/WX    TMP DP  RH WIND       PRES   REMARKS
LITTLE ROCK    CLOUDY    78  70  76 S10       30.03F
6HR MIN TEMP:  62; 6HR MAX TEMP:  78;

N LITTLE ROCK    N/A     76  69  78 S6        30.04F
6HR MIN TEMP:  64; 6HR MAX TEMP:  77;

JACKSONVILLE   MOSUNNY   80  68  66 S8        30.02F
6HR MIN TEMP:  61; 6HR MAX TEMP:  80;

SEARCY         CLOUDY    80  69  69 S12       30.04F
6HR MIN TEMP:  64; 6HR MAX TEMP:  82;

HOT SPRINGS    CLOUDY    73  69  87 SE8       30.03F
6HR MIN TEMP:  68; 6HR MAX TEMP:  73;

RUSSELLVILLE   CLOUDY    71  67  87 SE3       30.02F
6HR MIN TEMP:  65; 6HR MAX TEMP:  71;

CLINTON        CLOUDY    70  66  88 CALM      30.05F FOG
$$

ARZ036-211900-
EAST ARKANSAS

CITY           SKY/WX    TMP DP  RH WIND       PRES   REMARKS
WEST MEMPHIS   LGT RAIN  80  62  54 S15       30.07F
6HR MIN TEMP:  62; 6HR MAX TEMP:  81; 6HR PCP:  0.01;

$$

ARZ050-053-066-070-073-211900-
SOUTHWEST ARKANSAS

CITY           SKY/WX    TMP DP  RH WIND       PRES   REMARKS
ARKADELPHIA    CLOUDY    77  69  76 S8        30.02F
6HR MIN TEMP:  63; 6HR MAX TEMP:  77;

CAMDEN         CLOUDY    79  68  69 CALM      30.02F
TEXARKANA      CLOUDY    79  69  71 SE8       29.99F
6HR MIN TEMP:  68; 6HR MAX TEMP:  79;

EL DORADO      CLOUDY    78  72  81 SE9       30.02F
6HR MIN TEMP:  66; 6HR MAX TEMP:  78;

DE QUEEN       PTSUNNY   78  71  79 SE8       29.96F
6HR MIN TEMP:  64; 6HR MAX TEMP:  79; 6HR PCP: TRACE;

$$

ARZ056-057-069-211900-
SOUTHEAST ARKANSAS

CITY           SKY/WX    TMP DP  RH WIND       PRES   REMARKS
PINE BLUFF     PTSUNNY   80  67  64 S14       30.04F
6HR MIN TEMP:  65; 6HR MAX TEMP:  81;

STUTTGART      PTSUNNY   83  66  56 SE15G22   30.04F HX  85
6HR MIN TEMP:  65; 6HR MAX TEMP:  83; 6HR PCP: TRACE;

MONTICELLO     CLOUDY    81  66  60 S9G20     30.04F
6HR MIN TEMP:  66; 6HR MAX TEMP:  83;


$$





USA.gov is the U.S. government's official web portal to all federal, state and local government web resources and services.